Regional Weather Roundup
Issued by NWS

Home | Current Version | Previous Version | Text Only | Print | Product List | Glossary Off
Versions: 1 2 3 4 5 6 7 8 9 10 11 12 13 14 15 16 17 18 19 20 21 22 23 24 25 26 27 28 29 30 31 32 33 34 35 36 37 38 39 40 41 42 43 44 45 46 47 48 49 50

000
ASUS43 KBIS 271610
RWRND
NORTH DAKOTA REGIONAL WEATHER ROUNDUP
NATIONAL WEATHER SERVICE EASTERN NORTH DAKOTA/GRAND FORKS ND
1100 AM CDT TUE JUN 27 2017

  NOTE: "FAIR" INDICATES FEW OR NO CLOUDS BELOW 12,000 FEET WITH NO
  SIGNIFICANT WEATHER AND/OR OBSTRUCTIONS TO VISIBILITY.

NDZ001>003-009>011-017-271700-
...NORTHWEST NORTH DAKOTA...

CITY           SKY/WX    TMP DP  RH WIND       PRES   REMARKS
WILLISTON      FAIR      76  46  34 S10       29.59F
MINOT          FAIR      67  45  45 S22G29    29.62F
MINOT AFB      FAIR      67  46  46 S18G24    29.61F
$$

NDZ018>021-031>035-040>046-271700-
...SOUTHWEST NORTH DAKOTA...

CITY           SKY/WX    TMP DP  RH WIND       PRES   REMARKS
BISMARCK       FAIR      73  52  47 S18G25    29.72F
DICKINSON      FAIR      74  46  36 S15       29.64F
GARRISON         N/A     67  47  48 S21G29    29.68F
HETTINGER      FAIR      76  51  41 S13G22    29.68F
$$

NDZ004>008-012>016-024-026-027-054-271700-
...NORTHEAST NORTH DAKOTA...

CITY           SKY/WX    TMP DP  RH WIND       PRES   REMARKS
GRAND FORKS    PTSUNNY   72  46  39 S21       29.82F
GRAND FORKS AF FAIR      72  44  36 S20       29.82F
DEVILS LAKE    FAIR      70  46  42 S22G30    29.76F
$$

NDZ022-023-025-028>030-036>039-047>053-271700-
...SOUTHEAST NORTH DAKOTA...

CITY           SKY/WX    TMP DP  RH WIND       PRES   REMARKS
JAMESTOWN      FAIR      64  47  53 S16G24    29.81F
FARGO          FAIR      73  44  35 S21       29.88F
WAHPETON       FAIR      70  39  32 S17G24    29.93F
$$




USA.gov is the U.S. government's official web portal to all federal, state and local government web resources and services.